WBANNO,USDM_WEEK,LONGITUDE,LATITUDE,SMVWC_5_CM_MEAN,SMANOM_5_CM_MEAN,SMPERC_5_CM_30COUNTS,SMPERC_5_CM_70COUNTS,SMVWC_10_CM_MEAN,SMANOM_10_CM_MEAN,SMPERC_10_CM_30COUNTS,SMPERC_10_CM_70COUNTS,SMVWC_20_CM_MEAN,SMANOM_20_CM_MEAN,SMPERC_20_CM_30COUNTS,SMPERC_20_CM_70COUNTS,SMVWC_50_CM_MEAN,SMANOM_50_CM_MEAN,SMPERC_50_CM_30COUNTS,SMPERC_50_CM_70COUNTS,SMVWC_100_CM_MEAN,SMANOM_100_CM_MEAN,SMPERC_100_CM_30COUNTS,SMPERC_100_CM_70COUNTS,SMVWC_TOP_CM_MEAN,SMANOM_TOP_CM_MEAN,SMPERC_TOP_CM_30COUNTS,SMPERC_TOP_CM_70COUNTS,SMVWC_COLUMN_CM_MEAN,SMANOM_COLUMN_CM_MEAN,SMPERC_COLUMN_CM_30COUNTS,SMPERC_COLUMN_CM_70COUNTS
63828,20100120,-84.47,31.31,,,,,,,,,,,,,,,,,,,,,,,,,,,,
63828,20100121,-84.47,31.31,,,,,,,,,,,,,,,,,,,,,,,,,,,,
63828,20100122,-84.47,31.31,,,,,,,,,,,,,,,,,,,,,,,,,,,,
63828,20100123,-84.47,31.31,,,,,,,,,,,,,,,,,,,,,,,,,,,,
63828,20100124,-84.47,31.31,,,,,,,,,,,,,,,,,,,,,,,,,,,,
63828,20100125,-84.47,31.31,,,,,,,,,,,,,,,,,,,,,,,,,,,,
63828,20100126,-84.47,31.31,0.138,0.36,0.167,0.436,0.127,0.4,0.173,0.481,0.132,0.66,0,0.667,0.166,0.84,0,0.994,0.242,2.05,0.006,0.994,0.133,0.38,0.167,0.442,0.161,0.84,0,0.808
63828,20100127,-84.47,31.31,0.139,0.4,0.083,0.411,0.128,0.44,0.089,0.446,0.133,0.69,0,0.732,0.167,0.84,0,0.994,0.242,2.05,0.006,0.994,0.133,0.41,0.083,0.411,0.162,0.86,0,0.893
63828,20100128,-84.47,31.31,0.138,0.33,0,0.357,0.127,0.4,0,0.399,0.133,0.67,0,0.696,0.167,0.85,0,0.994,0.243,2.07,0.006,0.994,0.132,0.37,0,0.357,0.162,0.84,0,0.887
63828,20100129,-84.47,31.31,0.132,0.09,0.018,0.214,0.122,0.17,0,0.256,0.129,0.44,0,0.571,0.165,0.71,0,0.988,0.242,1.95,0.006,0.994,0.127,0.13,0.006,0.214,0.158,0.62,0,0.75
63828,20100130,-84.47,31.31,0.133,0.1,0.054,0.196,0.123,0.18,0.006,0.226,0.129,0.42,0,0.47,0.163,0.64,0,0.952,0.242,1.87,0,1,0.128,0.14,0.012,0.202,0.158,0.59,0,0.661
63828,20100131,-84.47,31.31,0.136,0.2,0.054,0.292,0.125,0.28,0.006,0.339,0.131,0.51,0,0.512,0.165,0.7,0,0.952,0.242,1.83,0,1,0.13,0.24,0.012,0.298,0.16,0.68,0,0.661
63828,20100201,-84.47,31.31,0.135,0.16,0.054,0.232,0.125,0.25,0.006,0.286,0.131,0.5,0,0.524,0.166,0.73,0,0.958,0.243,1.81,0,1,0.13,0.2,0.012,0.238,0.16,0.67,0,0.673
63828,20100202,-84.47,31.31,0.133,0.09,0.054,0.149,0.123,0.17,0.006,0.155,0.13,0.42,0,0.381,0.166,0.72,0,0.946,0.243,1.77,0,1,0.128,0.13,0.012,0.143,0.159,0.62,0,0.601
63828,20100203,-84.47,31.31,0.134,0.11,0.054,0.143,0.123,0.15,0.006,0.161,0.13,0.38,0,0.268,0.166,0.7,0,0.946,0.244,1.73,0,1,0.129,0.13,0.012,0.143,0.159,0.61,0,0.577
63828,20100204,-84.47,31.31,0.135,0.13,0.054,0.143,0.124,0.16,0.006,0.161,0.13,0.37,0,0.268,0.166,0.68,0,0.833,0.244,1.69,0,1,0.129,0.14,0.012,0.143,0.16,0.61,0,0.53
63828,20100205,-84.47,31.31,0.136,0.16,0.036,0.143,0.124,0.17,0.006,0.161,0.13,0.36,0,0.25,0.166,0.66,0,0.702,0.244,1.65,0,1,0.13,0.16,0.006,0.143,0.16,0.6,0,0.524
63828,20100206,-84.47,31.31,0.139,0.26,0,0.232,0.126,0.24,0,0.256,0.132,0.46,0,0.339,0.168,0.74,0,0.714,0.244,1.63,0,1,0.132,0.25,0,0.226,0.162,0.68,0,0.613
63828,20100207,-84.47,31.31,0.137,0.19,0,0.137,0.124,0.16,0,0.143,0.13,0.38,0,0.31,0.167,0.69,0,0.714,0.244,1.59,0,1,0.131,0.17,0,0.131,0.161,0.61,0,0.613
63828,20100208,-84.47,31.31,0.136,0.17,0,0.137,0.124,0.15,0,0.149,0.13,0.36,0,0.244,0.166,0.67,0,0.714,0.244,1.57,0,1,0.13,0.16,0,0.131,0.16,0.59,0,0.577
63828,20100209,-84.47,31.31,0.136,0.15,0,0.137,0.124,0.13,0,0.149,0.13,0.35,0,0.244,0.166,0.66,0,0.72,0.244,1.53,0.006,0.994,0.13,0.14,0,0.131,0.16,0.56,0,0.506
63828,20100210,-84.47,31.31,0.136,0.16,0,0.179,0.124,0.14,0,0.143,0.13,0.35,0,0.25,0.166,0.66,0,0.72,0.244,1.52,0.006,0.994,0.13,0.15,0,0.131,0.16,0.57,0,0.494
63828,20100211,-84.47,31.31,0.136,0.17,0,0.179,0.124,0.15,0,0.161,0.13,0.35,0,0.256,0.166,0.67,0,0.81,0.244,1.53,0.006,0.994,0.13,0.16,0,0.131,0.16,0.57,0,0.53
63828,20100212,-84.47,31.31,0.136,0.18,0,0.179,0.124,0.15,0,0.161,0.13,0.35,0,0.256,0.166,0.66,0,0.804,0.244,1.52,0.006,0.994,0.13,0.17,0,0.131,0.16,0.57,0,0.53
63828,20100213,-84.47,31.31,0.136,0.16,0,0.173,0.124,0.14,0,0.143,0.129,0.31,0,0.232,0.165,0.6,0.006,0.756,0.244,1.52,0.006,0.994,0.13,0.15,0,0.125,0.16,0.53,0,0.512
63828,20100214,-84.47,31.31,0.137,0.18,0,0.196,0.125,0.16,0,0.185,0.13,0.34,0,0.268,0.165,0.6,0.006,0.756,0.243,1.47,0.006,0.994,0.131,0.17,0,0.149,0.16,0.54,0,0.512
63828,20100215,-84.47,31.31,0.138,0.19,0,0.196,0.125,0.17,0,0.19,0.13,0.36,0,0.286,0.165,0.6,0.006,0.756,0.243,1.45,0.006,0.994,0.131,0.18,0,0.149,0.16,0.54,0,0.524
63828,20100216,-84.47,31.31,0.14,0.26,0,0.244,0.127,0.22,0,0.238,0.131,0.39,0,0.333,0.165,0.61,0.006,0.738,0.243,1.46,0,1,0.133,0.25,0,0.196,0.161,0.58,0,0.649
63828,20100217,-84.47,31.31,0.139,0.24,0,0.202,0.127,0.22,0,0.244,0.131,0.42,0,0.345,0.166,0.61,0.006,0.726,0.243,1.45,0,1,0.133,0.23,0,0.196,0.161,0.58,0,0.619
63828,20100218,-84.47,31.31,0.139,0.22,0,0.202,0.126,0.2,0,0.226,0.131,0.4,0.006,0.339,0.165,0.6,0.012,0.673,0.243,1.45,0,1,0.132,0.21,0,0.196,0.161,0.56,0,0.583
63828,20100219,-84.47,31.31,0.138,0.21,0,0.202,0.126,0.19,0.018,0.228,0.131,0.41,0.006,0.339,0.166,0.6,0.012,0.69,0.243,1.46,0,1,0.132,0.2,0,0.198,0.161,0.56,0,0.587
63828,20100220,-84.47,31.31,0.132,0.03,0.071,0.071,0.122,0.04,0.09,0.108,0.129,0.28,0.006,0.232,0.165,0.57,0.006,0.637,0.243,1.46,0,1,0.127,0.03,0.09,0.072,0.158,0.44,0,0.467
63828,20100221,-84.47,31.31,0.128,-0.09,0.208,0.048,0.119,-0.07,0.228,0.066,0.127,0.18,0.006,0.089,0.163,0.49,0.006,0.506,0.243,1.45,0,1,0.124,-0.09,0.228,0.048,0.156,0.34,0,0.323
63828,20100222,-84.47,31.31,0.124,-0.19,0.345,0.048,0.117,-0.16,0.353,0.054,0.125,0.11,0.024,0.065,0.161,0.43,0.006,0.369,0.242,1.43,0,1,0.121,-0.18,0.371,0.048,0.154,0.25,0,0.204
63828,20100223,-84.47,31.31,0.124,-0.19,0.345,0.042,0.118,-0.12,0.353,0.102,0.126,0.15,0.024,0.149,0.161,0.41,0.006,0.345,0.242,1.41,0,1,0.121,-0.16,0.371,0.072,0.154,0.26,0,0.216
63828,20100224,-84.47,31.31,0.124,-0.19,0.345,0.042,0.118,-0.11,0.353,0.102,0.126,0.16,0.024,0.202,0.161,0.42,0.006,0.357,0.241,1.39,0,1,0.121,-0.16,0.371,0.072,0.154,0.26,0,0.257
63828,20100225,-84.47,31.31,0.123,-0.18,0.345,0.042,0.118,-0.1,0.359,0.102,0.127,0.19,0.018,0.214,0.161,0.44,0,0.429,0.24,1.36,0.006,0.994,0.121,-0.15,0.371,0.072,0.154,0.27,0.006,0.263
63828,20100226,-84.47,31.31,0.123,-0.18,0.351,0.042,0.118,-0.1,0.369,0.101,0.127,0.19,0.018,0.214,0.162,0.46,0,0.542,0.24,1.37,0.006,0.994,0.12,-0.15,0.375,0.071,0.154,0.27,0.006,0.262
63828,20100227,-84.47,31.31,0.123,-0.17,0.286,0.042,0.118,-0.08,0.313,0.102,0.127,0.2,0.018,0.22,0.162,0.48,0,0.643,0.239,1.35,0.012,0.988,0.12,-0.13,0.295,0.072,0.154,0.29,0.006,0.265
63828,20100228,-84.47,31.31,0.123,-0.15,0.214,0.042,0.118,-0.08,0.289,0.102,0.127,0.2,0.024,0.226,0.161,0.48,0,0.696,0.239,1.37,0.012,0.988,0.12,-0.12,0.247,0.072,0.154,0.3,0.006,0.265
63828,20100301,-84.47,31.31,0.123,-0.13,0.186,0.042,0.118,-0.06,0.28,0.104,0.126,0.2,0.018,0.226,0.161,0.47,0.012,0.726,0.239,1.38,0.012,0.988,0.121,-0.09,0.213,0.073,0.154,0.31,0.006,0.268
63828,20100302,-84.47,31.31,0.119,-0.22,0.287,0.03,0.116,-0.16,0.39,0.03,0.124,0.11,0.024,0.119,0.161,0.46,0.012,0.667,0.239,1.38,0.018,0.982,0.117,-0.19,0.317,0.024,0.152,0.24,0.012,0.152
63828,20100303,-84.47,31.31,0.121,-0.15,0.287,0.162,0.117,-0.09,0.39,0.165,0.126,0.18,0.024,0.19,0.161,0.49,0.012,0.667,0.239,1.4,0.018,0.982,0.119,-0.12,0.317,0.159,0.153,0.3,0.012,0.177
63828,20100304,-84.47,31.31,0.121,-0.12,0.289,0.169,0.118,-0.04,0.384,0.183,0.126,0.22,0.024,0.298,0.162,0.53,0.012,0.673,0.239,1.45,0.012,0.988,0.12,-0.08,0.319,0.16,0.153,0.34,0.006,0.313
63828,20100305,-84.47,31.31,0.122,-0.09,0.285,0.17,0.118,-0.01,0.36,0.205,0.127,0.26,0.024,0.321,0.163,0.56,0.012,0.685,0.239,1.49,0.012,0.988,0.12,-0.05,0.319,0.163,0.154,0.37,0.006,0.419
63828,20100306,-84.47,31.31,0.122,-0.06,0.279,0.17,0.119,0.02,0.344,0.209,0.127,0.27,0.024,0.339,0.163,0.59,0.012,0.685,0.24,1.56,0.006,0.994,0.12,-0.02,0.309,0.16,0.154,0.4,0.006,0.457
63828,20100307,-84.47,31.31,0.122,-0.03,0.213,0.171,0.119,0.05,0.248,0.211,0.127,0.28,0.024,0.335,0.164,0.62,0.012,0.744,0.24,1.59,0.006,0.994,0.12,0.01,0.226,0.164,0.154,0.42,0.006,0.468
63828,20100308,-84.47,31.31,0.121,-0.01,0.152,0.171,0.119,0.06,0.167,0.21,0.127,0.31,0.018,0.347,0.165,0.66,0,0.845,0.24,1.62,0.006,0.994,0.12,0.03,0.157,0.164,0.154,0.44,0.006,0.468
63828,20100309,-84.47,31.31,0.118,-0.05,0.189,0.14,0.117,0.03,0.131,0.188,0.127,0.3,0.024,0.327,0.166,0.69,0,0.929,0.24,1.67,0,1,0.118,0,0.185,0.14,0.154,0.42,0,0.449
63828,20100310,-84.47,31.31,0.11,-0.23,0.335,0.006,0.112,-0.13,0.264,0.044,0.123,0.14,0.024,0.182,0.164,0.64,0.006,0.862,0.241,1.69,0,1,0.111,-0.18,0.333,0,0.15,0.26,0,0.297
63828,20100311,-84.47,31.31,0.103,-0.36,0.479,0,0.108,-0.26,0.415,0.025,0.121,0.05,0.024,0.061,0.163,0.57,0.006,0.766,0.24,1.66,0.006,0.994,0.105,-0.32,0.484,0,0.147,0.12,0.006,0.147
63828,20100312,-84.47,31.31,0.104,-0.32,0.488,0.078,0.109,-0.21,0.432,0.123,0.121,0.09,0.024,0.145,0.162,0.53,0.006,0.743,0.24,1.64,0.006,0.994,0.107,-0.27,0.494,0.119,0.147,0.15,0.006,0.17
63828,20100313,-84.47,31.31,0.108,-0.21,0.488,0.217,0.112,-0.09,0.432,0.265,0.124,0.22,0.024,0.267,0.162,0.55,0.006,0.754,0.239,1.63,0.006,0.994,0.11,-0.16,0.494,0.269,0.149,0.26,0.006,0.277
63828,20100314,-84.47,31.31,0.111,-0.13,0.485,0.305,0.114,-0.01,0.409,0.39,0.125,0.32,0.018,0.404,0.163,0.61,0.006,0.772,0.239,1.65,0.006,0.994,0.113,-0.07,0.479,0.38,0.151,0.34,0.006,0.417
63828,20100315,-84.47,31.31,0.113,-0.05,0.435,0.304,0.116,0.06,0.37,0.388,0.126,0.38,0.012,0.53,0.164,0.66,0.006,0.778,0.24,1.71,0.006,0.994,0.115,0,0.43,0.376,0.152,0.41,0.006,0.558
63828,20100316,-84.47,31.31,0.116,0.04,0.298,0.304,0.117,0.12,0.293,0.389,0.127,0.43,0,0.613,0.165,0.7,0.006,0.802,0.24,1.78,0.006,0.994,0.117,0.08,0.299,0.371,0.153,0.47,0.006,0.695
63828,20100317,-84.47,31.31,0.119,0.14,0.155,0.304,0.118,0.2,0.167,0.411,0.127,0.48,0,0.625,0.166,0.73,0,0.869,0.241,1.86,0.006,0.994,0.119,0.16,0.161,0.369,0.154,0.54,0.006,0.756
63828,20100318,-84.47,31.31,0.124,0.27,0.012,0.321,0.12,0.28,0.024,0.411,0.127,0.53,0,0.625,0.166,0.77,0,0.958,0.242,1.99,0,1,0.122,0.28,0.018,0.369,0.156,0.64,0,0.863
63828,20100319,-84.47,31.31,0.123,0.27,0,0.298,0.118,0.24,0,0.298,0.126,0.46,0,0.518,0.166,0.79,0,0.982,0.242,2.07,0,1,0.121,0.26,0,0.256,0.155,0.61,0,0.887
63828,20100320,-84.47,31.31,0.118,0.2,0,0.167,0.114,0.15,0,0.161,0.123,0.31,0,0.375,0.165,0.75,0,0.994,0.243,2.1,0,1,0.116,0.18,0,0.113,0.153,0.52,0,0.887
63828,20100321,-84.47,31.31,0.114,0.15,0,0.077,0.112,0.09,0,0.036,0.121,0.23,0,0.238,0.163,0.69,0,0.988,0.243,2.11,0,1,0.113,0.12,0,0,0.15,0.45,0,0.804
63828,20100322,-84.47,31.31,0.114,0.18,0,0.202,0.11,0.07,0,0.036,0.119,0.18,0,0.101,0.162,0.63,0,0.982,0.242,2.09,0,1,0.112,0.14,0,0.036,0.15,0.42,0,0.792
63828,20100323,-84.47,31.31,0.115,0.21,0,0.286,0.109,0.07,0,0.042,0.118,0.15,0,0.012,0.16,0.58,0,0.97,0.242,2.05,0,1,0.112,0.16,0,0.048,0.149,0.41,0,0.786
63828,20100324,-84.47,31.31,0.114,0.23,0,0.286,0.108,0.07,0,0.018,0.117,0.12,0,0,0.159,0.55,0,0.958,0.241,2.02,0,1,0.111,0.17,0,0.048,0.148,0.4,0,0.786
63828,20100325,-84.47,31.31,0.111,0.2,0,0.268,0.107,0.07,0,0.018,0.117,0.11,0,0,0.158,0.53,0,0.958,0.24,1.93,0.006,0.994,0.109,0.15,0,0.048,0.147,0.37,0,0.696
63828,20100326,-84.47,31.31,0.105,0.12,0,0.214,0.104,0.04,0,0.018,0.116,0.09,0,0,0.158,0.51,0,0.952,0.24,1.87,0.006,0.994,0.105,0.09,0,0.048,0.145,0.31,0,0.554
63828,20100327,-84.47,31.31,0.1,0.05,0.024,0.208,0.101,0,0,0.012,0.115,0.07,0,0,0.157,0.49,0.006,0.946,0.239,1.82,0.006,0.994,0.101,0.03,0,0.048,0.143,0.26,0,0.411
63828,20100328,-84.47,31.31,0.096,-0.01,0.095,0.208,0.098,-0.06,0,0.012,0.114,0.04,0,0,0.156,0.47,0.012,0.94,0.239,1.75,0.012,0.988,0.097,-0.03,0.006,0.048,0.14,0.2,0,0.351
63828,20100329,-84.47,31.31,0.087,-0.16,0.22,0.083,0.093,-0.13,0,0.012,0.113,0.01,0,0,0.156,0.46,0.012,0.935,0.238,1.67,0.012,0.988,0.09,-0.14,0.113,0.012,0.137,0.11,0,0.22
63828,20100330,-84.47,31.31,0.077,-0.31,0.363,0,0.087,-0.24,0.107,0,0.111,-0.03,0,0,0.155,0.46,0.012,0.935,0.238,1.61,0.012,0.988,0.082,-0.28,0.256,0,0.134,0.01,0,0.083
63828,20100331,-84.47,31.31,0.069,-0.44,0.506,0,0.08,-0.35,0.25,0,0.109,-0.09,0.012,0,0.155,0.44,0.012,0.923,0.238,1.54,0.012,0.988,0.075,-0.41,0.399,0,0.13,-0.1,0.012,0.018
63828,20100401,-84.47,31.31,0.062,-0.55,0.649,0,0.073,-0.48,0.393,0,0.107,-0.16,0.071,0,0.154,0.44,0.012,0.905,0.238,1.5,0.012,0.988,0.067,-0.53,0.542,0,0.127,-0.2,0.077,0
63828,20100402,-84.47,31.31,0.056,-0.64,0.792,0,0.066,-0.6,0.536,0,0.104,-0.24,0.202,0,0.154,0.44,0.012,0.887,0.237,1.46,0.012,0.988,0.061,-0.64,0.685,0,0.123,-0.29,0.185,0
63828,20100403,-84.47,31.31,0.05,-0.73,0.911,0,0.059,-0.72,0.679,0,0.101,-0.34,0.345,0,0.153,0.43,0.006,0.869,0.237,1.42,0.012,0.988,0.055,-0.74,0.827,0,0.12,-0.39,0.327,0
63828,20100404,-84.47,31.31,0.045,-0.79,0.982,0,0.053,-0.82,0.821,0,0.097,-0.46,0.488,0,0.153,0.41,0,0.839,0.237,1.41,0.006,0.994,0.049,-0.82,0.964,0,0.117,-0.48,0.47,0
63828,20100405,-84.47,31.31,0.041,-0.84,1,0,0.048,-0.91,0.964,0,0.093,-0.59,0.631,0,0.152,0.4,0,0.821,0.237,1.4,0.006,0.994,0.045,-0.89,1,0,0.114,-0.56,0.613,0
63828,20100406,-84.47,31.31,0.039,-0.87,1,0,0.043,-0.98,1,0,0.089,-0.73,0.774,0,0.151,0.38,0.006,0.75,0.236,1.36,0.006,0.994,0.041,-0.94,1,0,0.112,-0.64,0.756,0
63828,20100407,-84.47,31.31,0.037,-0.89,1,0,0.04,-1.03,1,0,0.084,-0.88,0.904,0,0.151,0.35,0.006,0.643,0.236,1.33,0.006,0.994,0.038,-0.97,1,0,0.109,-0.7,0.886,0
63828,20100408,-84.47,31.31,0.036,-0.92,1,0,0.037,-1.07,1,0,0.079,-1.02,0.988,0,0.15,0.31,0.006,0.53,0.235,1.31,0,0.994,0.036,-1,1,0,0.107,-0.76,0.964,0
63828,20100409,-84.47,31.31,0.04,-0.84,0.916,0,0.036,-1.09,1,0,0.074,-1.15,1,0,0.149,0.27,0.006,0.411,0.235,1.26,0.006,0.982,0.038,-0.97,0.946,0,0.107,-0.77,0.97,0
63828,20100410,-84.47,31.31,0.048,-0.73,0.772,0,0.037,-1.06,1,0,0.07,-1.27,1,0,0.148,0.23,0.006,0.292,0.235,1.23,0.006,0.982,0.043,-0.89,0.802,0,0.108,-0.74,0.867,0
63828,20100411,-84.47,31.31,0.053,-0.65,0.671,0,0.04,-1.02,1,0,0.067,-1.35,1,0,0.147,0.2,0.006,0.19,0.235,1.2,0.006,0.982,0.047,-0.83,0.79,0,0.108,-0.72,0.867,0
63828,20100412,-84.47,31.31,0.057,-0.61,0.671,0,0.041,-0.99,1,0,0.064,-1.41,1,0,0.146,0.15,0.006,0.077,0.234,1.15,0.006,0.982,0.049,-0.79,0.79,0,0.109,-0.71,0.867,0
63828,20100413,-84.47,31.31,0.059,-0.59,0.671,0,0.042,-0.97,1,0,0.063,-1.44,1,0,0.144,0.09,0.024,0.036,0.234,1.13,0.006,0.982,0.05,-0.78,0.79,0,0.109,-0.7,0.866,0
63828,20100414,-84.47,31.31,0.06,-0.59,0.671,0,0.043,-0.96,1,0,0.062,-1.46,1,0,0.144,0.07,0.024,0.054,0.235,1.11,0.006,0.982,0.051,-0.77,0.788,0,0.109,-0.7,0.865,0
63828,20100415,-84.47,31.31,0.06,-0.59,0.673,0,0.043,-0.96,1,0,0.061,-1.48,1,0,0.143,0.05,0.024,0.096,0.234,1.1,0.006,0.982,0.052,-0.77,0.789,0,0.108,-0.7,0.866,0
63828,20100416,-84.47,31.31,0.055,-0.68,0.756,0,0.042,-0.96,1,0,0.06,-1.51,1,0,0.143,0.02,0.036,0.108,0.234,1.08,0,0.976,0.049,-0.83,0.843,0,0.107,-0.74,0.896,0
63828,20100417,-84.47,31.31,0.047,-0.82,0.898,0,0.039,-1.01,1,0,0.059,-1.53,1,0,0.142,-0.02,0.067,0.127,0.234,1.05,0,0.97,0.043,-0.92,0.988,0,0.104,-0.82,1,0
63828,20100418,-84.47,31.31,0.04,-0.92,1,0,0.035,-1.07,1,0,0.058,-1.55,1,0,0.14,-0.08,0.115,0.127,0.234,1.03,0,0.97,0.038,-1.01,1,0,0.101,-0.88,1,0
63828,20100419,-84.47,31.31,0.036,-0.98,1,0,0.033,-1.11,1,0,0.056,-1.57,1,0,0.139,-0.12,0.139,0.127,0.233,0.99,0,0.97,0.035,-1.06,1,0,0.099,-0.93,1,0
63828,20100420,-84.47,31.31,0.034,-1.01,1,0,0.031,-1.12,1,0,0.054,-1.59,1,0,0.138,-0.14,0.156,0.108,0.233,0.97,0,0.97,0.033,-1.09,1,0,0.098,-0.95,1,0
63828,20100421,-84.47,31.31,0.033,-1.04,1,0,0.03,-1.13,1,0,0.052,-1.61,1,0,0.136,-0.21,0.299,0.078,0.232,0.93,0,0.97,0.031,-1.1,1,0,0.097,-0.98,1,0
63828,20100422,-84.47,31.31,0.032,-1.05,1,0,0.029,-1.14,1,0,0.05,-1.62,1,0,0.134,-0.28,0.443,0.03,0.232,0.91,0,0.976,0.03,-1.11,1,0,0.095,-1,1,0
63828,20100423,-84.47,31.31,0.031,-1.06,1,0,0.029,-1.14,1,0,0.049,-1.62,1,0,0.132,-0.34,0.575,0.018,0.232,0.89,0,0.994,0.03,-1.12,1,0,0.094,-1,1,0
63828,20100424,-84.47,31.31,0.03,-1.07,1,0,0.028,-1.14,1,0,0.048,-1.61,1,0,0.13,-0.41,0.685,0,0.231,0.88,0,1,0.029,-1.13,1,0,0.093,-1.01,1,0
63828,20100425,-84.47,31.31,0.043,-0.84,0.863,0.065,0.039,-0.95,0.862,0.018,0.052,-1.46,0.982,0.012,0.128,-0.44,0.762,0,0.231,0.86,0,0.994,0.041,-0.91,0.862,0.036,0.099,-0.85,0.861,0.018
63828,20100426,-84.47,31.31,0.056,-0.62,0.72,0.167,0.05,-0.73,0.72,0.083,0.063,-1.16,0.839,0.095,0.132,-0.29,0.738,0.137,0.231,0.86,0,0.994,0.053,-0.69,0.72,0.107,0.106,-0.63,0.72,0.161
63828,20100427,-84.47,31.31,0.066,-0.42,0.577,0.167,0.061,-0.54,0.577,0.083,0.071,-0.91,0.696,0.095,0.137,-0.13,0.696,0.28,0.231,0.87,0,0.994,0.063,-0.49,0.577,0.107,0.113,-0.43,0.577,0.196
63828,20100428,-84.47,31.31,0.076,-0.24,0.435,0.167,0.07,-0.36,0.435,0.083,0.08,-0.66,0.554,0.095,0.141,0.02,0.554,0.417,0.231,0.92,0,0.994,0.073,-0.31,0.435,0.107,0.119,-0.23,0.435,0.196
63828,20100429,-84.47,31.31,0.085,-0.07,0.292,0.167,0.079,-0.18,0.292,0.083,0.087,-0.43,0.411,0.095,0.145,0.17,0.411,0.548,0.232,0.97,0,0.994,0.082,-0.13,0.292,0.107,0.126,-0.05,0.292,0.196
63828,20100430,-84.47,31.31,0.092,0.09,0.149,0.167,0.087,-0.01,0.149,0.083,0.095,-0.2,0.268,0.095,0.149,0.32,0.268,0.673,0.233,1.04,0,0.994,0.09,0.04,0.149,0.107,0.131,0.13,0.149,0.196
63828,20100501,-84.47,31.31,0.105,0.32,0.006,0.274,0.098,0.2,0.006,0.173,0.103,0.04,0.131,0.095,0.153,0.47,0.125,0.744,0.234,1.1,0,0.994,0.101,0.26,0.006,0.214,0.138,0.34,0.006,0.304
63828,20100502,-84.47,31.31,0.103,0.32,0,0.351,0.098,0.24,0,0.292,0.106,0.15,0.006,0.083,0.157,0.62,0,0.869,0.234,1.17,0,1,0.101,0.28,0,0.321,0.14,0.41,0,0.429
63828,20100503,-84.47,31.31,0.102,0.31,0,0.387,0.097,0.24,0,0.315,0.104,0.12,0.006,0.006,0.154,0.57,0,0.827,0.235,1.23,0,1,0.099,0.28,0,0.387,0.138,0.39,0,0.423
63828,20100504,-84.47,31.31,0.106,0.41,0,0.464,0.099,0.32,0,0.393,0.106,0.18,0.006,0.071,0.154,0.58,0,0.821,0.236,1.26,0.006,0.994,0.102,0.37,0,0.458,0.14,0.47,0,0.524
63828,20100505,-84.47,31.31,0.11,0.51,0,0.607,0.103,0.42,0,0.536,0.109,0.26,0.006,0.214,0.156,0.66,0,0.827,0.238,1.39,0.006,0.994,0.107,0.47,0,0.601,0.144,0.59,0,0.667
63828,20100506,-84.47,31.31,0.113,0.59,0,0.75,0.105,0.48,0,0.679,0.111,0.31,0.006,0.327,0.158,0.72,0,0.839,0.24,1.49,0.006,0.994,0.109,0.54,0,0.744,0.146,0.68,0,0.81
63828,20100507,-84.47,31.31,0.116,0.66,0,0.863,0.108,0.55,0,0.81,0.113,0.36,0.006,0.333,0.159,0.78,0,0.857,0.242,1.57,0.006,0.994,0.112,0.6,0,0.857,0.147,0.76,0,0.952
63828,20100508,-84.47,31.31,0.114,0.64,0,0.762,0.107,0.55,0,0.798,0.113,0.39,0,0.333,0.16,0.84,0,0.929,0.244,1.64,0.006,0.988,0.11,0.59,0,0.762,0.147,0.79,0,0.982
63828,20100509,-84.47,31.31,0.11,0.58,0,0.619,0.104,0.53,0,0.673,0.112,0.38,0,0.333,0.161,0.89,0,0.946,0.245,1.73,0.006,0.988,0.107,0.55,0,0.619,0.146,0.79,0,0.982
63828,20100510,-84.47,31.31,0.106,0.52,0,0.482,0.102,0.5,0,0.583,0.11,0.36,0,0.327,0.161,0.94,0,0.994,0.246,1.78,0.012,0.982,0.104,0.5,0,0.482,0.145,0.79,0,0.982
63828,20100511,-84.47,31.31,0.097,0.38,0,0.405,0.096,0.41,0,0.506,0.106,0.29,0,0.262,0.16,0.93,0,1,0.247,1.84,0.012,0.982,0.097,0.38,0,0.411,0.141,0.71,0,0.97
63828,20100512,-84.47,31.31,0.088,0.22,0,0.262,0.089,0.29,0,0.363,0.101,0.19,0,0.119,0.157,0.86,0,1,0.246,1.8,0.012,0.982,0.088,0.24,0,0.268,0.136,0.59,0,0.833
63828,20100513,-84.47,31.31,0.081,0.1,0.006,0.119,0.083,0.2,0,0.22,0.098,0.13,0,0.006,0.154,0.83,0,1,0.245,1.77,0.018,0.976,0.082,0.13,0,0.125,0.132,0.49,0,0.69
63828,20100514,-84.47,31.31,0.075,-0.01,0.101,0.006,0.077,0.11,0.006,0.09,0.094,0.07,0,0,0.152,0.8,0,0.994,0.243,1.76,0.018,0.976,0.076,0.03,0.006,0.012,0.128,0.4,0,0.551
63828,20100515,-84.47,31.31,0.069,-0.12,0.238,0,0.071,0.01,0.042,0.012,0.09,0.01,0.006,0,0.15,0.75,0.006,0.976,0.243,1.76,0.018,0.982,0.07,-0.07,0.114,0,0.125,0.3,0,0.413
63828,20100516,-84.47,31.31,0.064,-0.2,0.381,0,0.065,-0.09,0.156,0,0.087,-0.06,0.006,0,0.148,0.73,0.006,0.976,0.242,1.75,0.018,0.982,0.065,-0.16,0.257,0,0.121,0.21,0,0.269
63828,20100517,-84.47,31.31,0.06,-0.27,0.512,0,0.06,-0.19,0.299,0,0.083,-0.12,0.006,0,0.146,0.71,0.006,0.976,0.241,1.76,0.012,0.988,0.06,-0.24,0.389,0,0.118,0.14,0,0.132
63828,20100518,-84.47,31.31,0.059,-0.27,0.512,0,0.056,-0.27,0.443,0,0.079,-0.18,0.006,0,0.145,0.69,0.006,0.976,0.241,1.78,0.006,0.994,0.057,-0.28,0.389,0,0.116,0.09,0,0.006
63828,20100519,-84.47,31.31,0.059,-0.27,0.512,0,0.052,-0.33,0.569,0,0.076,-0.24,0.018,0,0.144,0.67,0.006,0.976,0.24,1.76,0.006,0.994,0.055,-0.31,0.401,0,0.114,0.04,0,0
63828,20100520,-84.47,31.31,0.058,-0.28,0.571,0,0.049,-0.38,0.713,0,0.073,-0.3,0.089,0,0.142,0.65,0.006,0.976,0.24,1.75,0,1,0.054,-0.34,0.521,0,0.113,0,0,0
63828,20100521,-84.47,31.31,0.057,-0.3,0.607,0,0.047,-0.42,0.845,0,0.07,-0.35,0.192,0,0.142,0.65,0.006,0.982,0.239,1.74,0,1,0.052,-0.37,0.655,0,0.111,-0.04,0,0
63828,20100522,-84.47,31.31,0.056,-0.31,0.613,0,0.046,-0.44,0.935,0,0.067,-0.39,0.317,0,0.141,0.65,0,1,0.239,1.72,0,1,0.051,-0.39,0.685,0,0.11,-0.07,0,0
63828,20100523,-84.47,31.31,0.056,-0.33,0.613,0,0.044,-0.46,0.94,0,0.065,-0.44,0.443,0,0.14,0.62,0,0.982,0.238,1.71,0,1,0.05,-0.42,0.685,0,0.109,-0.1,0.006,0
63828,20100524,-84.47,31.31,0.054,-0.35,0.625,0,0.043,-0.48,0.929,0,0.063,-0.49,0.581,0,0.139,0.59,0,0.964,0.237,1.71,0,1,0.049,-0.44,0.696,0,0.107,-0.14,0.03,0
63828,20100525,-84.47,31.31,0.05,-0.44,0.768,0,0.042,-0.5,0.929,0,0.061,-0.53,0.719,0,0.137,0.56,0,0.94,0.236,1.68,0.006,0.994,0.046,-0.49,0.839,0,0.105,-0.2,0.078,0
63828,20100526,-84.47,31.31,0.046,-0.51,0.911,0,0.04,-0.53,0.946,0,0.058,-0.58,0.85,0,0.136,0.53,0,0.94,0.235,1.65,0.012,0.988,0.043,-0.54,0.97,0,0.103,-0.26,0.156,0
63828,20100527,-84.47,31.31,0.043,-0.56,0.988,0,0.038,-0.56,0.946,0,0.056,-0.62,0.91,0,0.135,0.5,0,0.905,0.235,1.66,0.012,0.988,0.041,-0.59,0.994,0,0.102,-0.32,0.281,0
63828,20100528,-84.47,31.31,0.041,-0.61,1,0,0.037,-0.58,0.946,0,0.054,-0.65,0.946,0,0.134,0.44,0,0.78,0.234,1.64,0.012,0.988,0.039,-0.62,0.994,0,0.1,-0.37,0.417,0
63828,20100529,-84.47,31.31,0.039,-0.65,1,0,0.035,-0.62,0.964,0,0.053,-0.68,0.958,0,0.133,0.4,0,0.673,0.233,1.59,0.012,0.988,0.037,-0.66,1,0,0.099,-0.41,0.56,0
63828,20100530,-84.47,31.31,0.038,-0.68,1,0,0.034,-0.66,0.988,0,0.052,-0.71,0.976,0,0.132,0.35,0,0.548,0.233,1.53,0.012,0.988,0.036,-0.69,1,0,0.098,-0.46,0.696,0
63828,20100531,-84.47,31.31,0.038,-0.72,1,0,0.033,-0.7,1,0,0.05,-0.73,0.982,0,0.13,0.29,0,0.423,0.232,1.44,0.012,0.988,0.036,-0.73,1,0,0.097,-0.5,0.815,0
63828,20100601,-84.47,31.31,0.043,-0.66,0.905,0,0.034,-0.73,1,0,0.05,-0.76,0.988,0,0.129,0.24,0,0.304,0.232,1.37,0.012,0.988,0.038,-0.71,0.958,0,0.098,-0.5,0.827,0
63828,20100602,-84.47,31.31,0.051,-0.56,0.762,0,0.036,-0.72,1,0,0.049,-0.78,0.988,0,0.128,0.17,0,0.167,0.232,1.3,0.006,0.994,0.043,-0.66,0.827,0,0.099,-0.48,0.756,0
63828,20100603,-84.47,31.31,0.057,-0.48,0.619,0,0.039,-0.7,1,0,0.049,-0.8,1,0,0.127,0.11,0,0.06,0.231,1.19,0.006,0.994,0.048,-0.62,0.768,0,0.101,-0.46,0.702,0
63828,20100604,-84.47,31.31,0.067,-0.34,0.476,0.042,0.045,-0.63,0.911,0,0.049,-0.83,1,0,0.127,0.06,0,0.042,0.231,1.1,0.012,0.988,0.056,-0.51,0.673,0,0.104,-0.41,0.601,0
63828,20100605,-84.47,31.31,0.077,-0.19,0.333,0.042,0.053,-0.51,0.768,0,0.05,-0.86,1,0,0.125,-0.01,0.018,0.006,0.23,1.04,0.012,0.982,0.065,-0.38,0.53,0,0.107,-0.34,0.458,0
63828,20100606,-84.47,31.31,0.09,0.02,0.19,0.149,0.065,-0.32,0.625,0.101,0.057,-0.74,0.911,0.077,0.126,-0.02,0.018,0.036,0.23,0.99,0.012,0.982,0.078,-0.17,0.387,0.107,0.114,-0.19,0.315,0.095
63828,20100607,-84.47,31.31,0.103,0.23,0.048,0.292,0.078,-0.12,0.482,0.238,0.068,-0.54,0.768,0.22,0.132,0.11,0.018,0.179,0.23,0.96,0.012,0.982,0.091,0.04,0.244,0.25,0.122,0.02,0.173,0.238
63828,20100608,-84.47,31.31,0.109,0.31,0,0.345,0.088,0.05,0.339,0.268,0.077,-0.37,0.625,0.292,0.138,0.26,0.018,0.321,0.23,0.95,0.006,0.988,0.098,0.17,0.143,0.274,0.128,0.17,0.113,0.381
63828,20100609,-84.47,31.31,0.11,0.33,0,0.345,0.094,0.15,0.196,0.268,0.085,-0.21,0.482,0.292,0.143,0.38,0.018,0.458,0.23,0.93,0.012,0.982,0.102,0.24,0.131,0.274,0.133,0.28,0.107,0.518
63828,20100610,-84.47,31.31,0.112,0.36,0,0.345,0.1,0.24,0.054,0.268,0.093,-0.07,0.339,0.292,0.148,0.49,0.018,0.601,0.23,0.93,0.018,0.976,0.106,0.3,0.048,0.274,0.137,0.38,0.036,0.56